User: anonymous
Location: Unspecified
(0.0000°N, 0.0000°E)
Time: 07:47:54
(UTC+00:00)
Language:

OPTUS D3 - Orbit

View from above orbital plane
View from above orbital plane
View from above satellite
View from above satellite

Ground track
Ground track

The orbit data is extracted from the following two-line orbital elements,

1 35756U 09044B   14211.56360420 -.00000154  00000-0  10000-3 0  1119
2 35756 000.0455 341.6966 0002421 113.4925 211.8323 01.00273394 18122
Epoch (UTC): 30 July 2014 13:31:35
Eccentricity: 0.0002421
inclination: 0.0455°
perigee height: 35775 km
apogee height: 35796 km
right ascension of ascending node: 341.6966°
argument of perigee: 113.4925°
revolutions per day: 1.00273394
mean anomaly at epoch: 211.8323°
orbit number at epoch: 1812

The dashed part of the orbit path shows where the satellite is in the earth's shadow,  

DLR